Location: *
(37.4917°N, 71.5558°E)
Time: 20:24:40
(UTC+00:00)

Cosmos 1842 - Pass Details

Date: 09 April 2020
Orbit: 520 x 538 km, 82.5° (Epoch: 30 May)

Event Time Altitude Azimuth Distance (km) Brightness Sun altitude
Rises 23:49:00 0° 174° (S) 2,647 6.7 -11.7°
Reaches altitude 10° 23:51:10 10° 170° (S) 1,766 5.8 -11.3°
Maximum altitude 23:54:56 51° 94° (E) 673 4.2 -10.6°
Drops below altitude 10° 23:58:45 10° 18° (NNE) 1,791 6.5 -9.9°
Sets 00:00:57 0° 13° (NNE) 2,689 7.3 -9.5°
